contact:dominique.lefevre@mio.osupytheas.fr, maurice.libes@osupytheas.fr, didier.mallarino@osupytheas.fr
Project:EMSO http://www.emso-fr.org/EMSO-France
Depth: 2436.0 m
Title:EMSO Ligure Ouest : Data MII capteur AQUADOPP
Date,Latitude,Longitude,X_East,Y_North,Z_Up,Amplitude_X,Amplitude_Y,Amplitude_Z,Batterie,SoundSpeed,Heading,Pitch,Roll,Pressure,TIS,Speed,Direction
, degrees North, degrees East, m.s-1, m.s-1,m.s-1, 1, 1, 1, Volt, m.s-1, degree, degree, degree, dbar, degree_C, m.s-1, degree
2024-04-28T00:04:03,42.805,6.029,-0.06,0.022,0.002,106.0,105.0,103.0,13.3,1505.2,5.5,-0.8,1.8,2471.769,13.29,0.063,290.1
2024-04-28T00:07:03,42.805,6.029,-0.055,-0.018,-0.033,106.0,105.0,102.0,13.4,1505.2,355.9,-0.8,1.8,2471.75,13.29,0.057,251.9
2024-04-28T00:10:03,42.805,6.029,-0.053,0.002,0.003,105.0,105.0,103.0,13.3,1505.2,5.5,-0.8,1.8,2471.773,13.29,0.053,272.2
2024-04-28T00:13:03,42.805,6.029,-0.049,0.006,0.005,107.0,105.0,104.0,13.3,1505.2,5.1,-0.8,1.8,2471.753,13.29,0.049,277.0
2024-04-28T00:16:03,42.805,6.029,-0.02,-0.029,-0.029,107.0,106.0,104.0,13.4,1505.2,354.9,-0.8,1.8,2471.739,13.29,0.035,214.6
2024-04-28T00:19:03,42.805,6.029,-0.059,0.004,-0.028,104.0,106.0,104.0,13.4,1505.2,1.6,-0.8,1.8,2471.74,13.29,0.059,273.9
2024-04-28T00:22:03,42.805,6.029,-0.046,0.013,-0.026,107.0,105.0,104.0,13.4,1505.2,7.2,-0.8,1.8,2471.748,13.29,0.047,285.8
2024-04-28T00:25:03,42.805,6.029,-0.041,-0.004,-0.016,106.0,105.0,104.0,13.3,1505.2,1.4,-0.8,1.8,2471.725,13.29,0.041,264.4
2024-04-28T00:28:03,42.805,6.029,-0.041,-0.016,0.002,108.0,107.0,103.0,13.4,1505.2,5.1,-0.7,1.8,2471.731,13.29,0.044,248.7
2024-04-28T00:31:03,42.805,6.029,-0.026,-0.008,0.001,108.0,106.0,104.0,13.3,1505.2,2.1,-0.7,1.8,2471.692,13.29,0.027,252.9
2024-04-28T00:34:03,42.805,6.029,-0.048,-0.002,-0.01,107.0,107.0,104.0,13.4,1505.2,8.5,-0.8,1.8,2471.724,13.29,0.048,267.6
2024-04-28T00:37:03,42.805,6.029,-0.064,-0.008,-0.004,107.0,106.0,104.0,13.4,1505.2,355.6,-0.8,1.8,2471.729,13.29,0.064,262.9
2024-04-28T00:40:03,42.805,6.029,-0.048,0.0,-0.018,106.0,106.0,104.0,13.3,1505.2,0.5,-0.7,1.8,2471.739,13.29,0.048,270.0
2024-04-28T00:43:03,42.805,6.029,-0.049,0.02,0.007,107.0,106.0,103.0,13.4,1505.2,357.4,-0.7,1.8,2471.715,13.29,0.052,292.2
2024-04-28T00:46:03,42.805,6.029,-0.047,0.012,-0.001,107.0,106.0,104.0,13.4,1505.2,6.3,-0.7,1.8,2471.708,13.29,0.048,284.3
2024-04-28T00:49:03,42.805,6.029,-0.036,0.0,-0.029,106.0,105.0,103.0,13.3,1505.2,6.1,-0.8,1.8,2471.69,13.29,0.036,270.0
2024-04-28T00:52:03,42.805,6.029,-0.043,0.0,-0.034,108.0,107.0,103.0,13.4,1505.2,1.1,-0.8,1.8,2471.75,13.29,0.043,270.0
2024-04-28T00:55:03,42.805,6.029,-0.048,0.015,-0.012,108.0,106.0,103.0,13.4,1505.2,358.9,-0.7,1.8,2471.71,13.29,0.05,287.4
2024-04-28T00:58:03,42.805,6.029,-0.012,0.004,-0.028,108.0,106.0,103.0,13.3,1505.2,2.0,-0.7,1.8,2471.729,13.29,0.012,288.4
2024-04-28T01:04:03,42.805,6.029,-0.034,0.0,-0.002,107.0,108.0,105.0,13.3,1505.2,355.9,-0.8,1.8,2471.739,13.29,0.034,270.0
2024-04-28T01:07:03,42.805,6.029,-0.044,0.03,0.016,109.0,108.0,103.0,13.3,1505.2,4.3,-0.8,1.8,2471.742,13.29,0.053,304.3
2024-04-28T01:10:03,42.805,6.029,-0.017,0.013,0.008,107.0,106.0,104.0,13.4,1505.2,9.4,-0.8,1.8,2471.7,13.29,0.021,307.4
2024-04-28T01:13:03,42.805,6.029,-0.026,0.005,-0.001,106.0,105.0,104.0,13.4,1505.2,353.9,-0.7,1.8,2471.717,13.29,0.026,280.9
2024-04-28T01:16:03,42.805,6.029,-0.022,0.006,0.007,107.0,106.0,104.0,13.4,1505.2,358.3,-0.8,1.8,2471.706,13.29,0.022,285.3
2024-04-28T01:19:03,42.805,6.029,-0.053,0.023,-0.027,107.0,105.0,103.0,13.4,1505.2,358.4,-0.7,1.8,2471.722,13.29,0.057,293.5
2024-04-28T01:22:03,42.805,6.029,-0.03,0.015,-0.02,106.0,106.0,104.0,13.4,1505.2,4.5,-0.8,1.8,2471.711,13.29,0.033,296.6
2024-04-28T01:25:03,42.805,6.029,-0.028,0.011,-0.008,107.0,109.0,104.0,13.3,1505.2,10.1,-0.8,1.8,2471.69,13.29,0.03,291.4
2024-04-28T01:28:03,42.805,6.029,-0.03,0.045,0.018,107.0,105.0,103.0,13.4,1505.2,9.2,-0.7,1.8,2471.7,13.29,0.054,326.3
2024-04-28T01:31:03,42.805,6.029,-0.048,0.019,-0.028,106.0,106.0,103.0,13.3,1505.2,354.8,-0.8,1.8,2471.723,13.29,0.051,291.6
2024-04-28T01:34:03,42.805,6.029,-0.038,0.014,-0.032,107.0,105.0,102.0,13.4,1505.2,9.8,-0.7,1.8,2471.722,13.29,0.04,290.2
2024-04-28T01:37:03,42.805,6.029,-0.011,0.021,-0.048,106.0,106.0,103.0,13.3,1505.2,1.6,-0.7,1.8,2471.687,13.29,0.023,332.4
2024-04-28T01:40:03,42.805,6.029,-0.01,0.009,-0.02,107.0,106.0,103.0,13.4,1505.2,358.9,-0.8,1.8,2471.714,13.29,0.013,312.0
2024-04-28T01:43:03,42.805,6.029,-0.023,0.019,-0.01,106.0,106.0,104.0,13.4,1505.2,357.4,-0.8,1.8,2471.7,13.29,0.029,309.6
2024-04-28T01:46:03,42.805,6.029,-0.011,0.008,0.008,107.0,105.0,104.0,13.4,1505.2,2.2,-0.7,1.9,2471.663,13.29,0.013,306.0
2024-04-28T01:49:03,42.805,6.029,-0.021,0.019,-0.022,107.0,104.0,104.0,13.4,1505.2,7.7,-0.8,1.8,2471.7,13.29,0.028,312.1
2024-04-28T01:52:03,42.805,6.029,-0.034,0.021,-0.013,106.0,107.0,103.0,13.4,1505.2,357.8,-0.8,1.8,2471.667,13.29,0.039,301.7
2024-04-28T01:55:03,42.805,6.029,-0.013,0.01,-0.03,106.0,108.0,103.0,13.3,1505.2,7.6,-0.7,1.8,2471.703,13.29,0.016,307.6
2024-04-28T01:58:03,42.805,6.029,-0.024,0.022,0.011,106.0,106.0,104.0,13.4,1505.2,1.7,-0.8,1.8,2471.675,13.29,0.032,312.5
2024-04-28T02:04:03,42.805,6.029,-0.03,0.013,-0.006,108.0,105.0,103.0,13.4,1505.2,5.0,-0.7,1.9,2471.705,13.29,0.032,293.4
2024-04-28T02:07:03,42.805,6.029,-0.037,0.038,-0.01,108.0,106.0,104.0,13.3,1505.2,9.1,-0.7,1.8,2471.661,13.29,0.053,315.8
2024-04-28T02:10:03,42.805,6.029,-0.017,0.014,0.005,107.0,105.0,103.0,13.4,1505.2,352.8,-0.7,1.8,2471.691,13.29,0.022,309.5
2024-04-28T02:13:03,42.805,6.029,-0.023,0.0,-0.027,105.0,105.0,104.0,13.4,1505.2,1.0,-0.7,1.8,2471.708,13.29,0.023,270.0
2024-04-28T02:16:03,42.805,6.029,-0.031,0.039,-0.01,107.0,106.0,101.0,13.4,1505.2,355.0,-0.8,1.8,2471.703,13.29,0.049,321.5
2024-04-28T02:19:03,42.805,6.029,-0.027,0.031,0.019,107.0,105.0,103.0,13.4,1505.2,357.2,-0.7,1.8,2471.719,13.29,0.041,318.9
2024-04-28T02:22:03,42.805,6.029,-0.023,0.029,-0.002,107.0,105.0,104.0,13.3,1505.2,9.3,-0.8,1.8,2471.676,13.29,0.037,321.6
2024-04-28T02:25:03,42.805,6.029,-0.023,0.063,-0.011,105.0,106.0,105.0,13.4,1505.2,5.2,-0.7,1.8,2471.698,13.29,0.067,339.9
2024-04-28T02:28:03,42.805,6.029,-0.038,0.009,-0.027,106.0,105.0,102.0,13.4,1505.2,2.2,-0.8,1.8,2471.71,13.29,0.039,283.3
2024-04-28T02:31:03,42.805,6.029,-0.025,0.031,0.005,106.0,104.0,103.0,13.4,1505.2,359.4,-0.8,1.8,2471.688,13.29,0.039,321.1
2024-04-28T02:34:03,42.805,6.029,-0.015,0.029,0.017,106.0,105.0,103.0,13.3,1505.2,1.7,-0.8,1.8,2471.698,13.29,0.032,332.6
2024-04-28T02:37:03,42.805,6.029,-0.012,0.037,-0.015,104.0,106.0,104.0,13.4,1505.2,7.1,-0.8,1.8,2471.68,13.29,0.038,342.0
2024-04-28T02:40:03,42.805,6.029,-0.031,0.041,-0.006,106.0,106.0,102.0,13.4,1505.2,1.5,-0.7,1.8,2471.671,13.29,0.051,322.9
2024-04-28T02:43:03,42.805,6.029,-0.01,0.04,0.013,106.0,106.0,102.0,13.4,1505.2,2.1,-0.7,1.8,2471.652,13.29,0.041,346.0
2024-04-28T02:46:03,42.805,6.029,-0.017,0.013,0.019,105.0,106.0,103.0,13.4,1505.2,9.9,-0.8,1.8,2471.661,13.29,0.021,307.4
2024-04-28T02:49:03,42.805,6.029,-0.032,0.029,-0.011,108.0,105.0,103.0,13.3,1505.2,354.7,-0.7,1.8,2471.678,13.29,0.043,312.2
2024-04-28T02:52:03,42.805,6.029,-0.014,0.023,0.007,106.0,106.0,101.0,13.4,1505.2,5.5,-0.7,1.8,2471.678,13.29,0.026,328.7
2024-04-28T02:55:03,42.805,6.029,-0.01,0.034,0.014,105.0,105.0,103.0,13.4,1505.2,1.0,-0.7,1.8,2471.646,13.29,0.035,343.6
2024-04-28T02:58:03,42.805,6.029,-0.009,-0.002,0.005,105.0,104.0,102.0,13.4,1505.2,6.2,-0.8,1.8,2471.672,13.29,0.009,257.5
2024-04-28T03:04:03,42.805,6.029,-0.03,0.031,0.006,105.0,105.0,103.0,13.3,1505.2,9.3,-0.7,1.8,2471.702,13.29,0.043,315.9
2024-04-28T03:07:03,42.805,6.029,-0.027,-0.001,-0.014,106.0,105.0,102.0,13.3,1505.2,353.0,-0.8,1.8,2471.68,13.29,0.027,267.9
2024-04-28T03:10:03,42.805,6.029,-0.025,0.024,0.007,105.0,106.0,104.0,13.3,1505.2,2.6,-0.7,1.8,2471.67,13.29,0.034,313.8
2024-04-28T03:13:03,42.805,6.029,-0.011,0.028,0.0,106.0,105.0,103.0,13.3,1505.2,6.7,-0.8,1.8,2471.628,13.29,0.03,338.6
2024-04-28T03:16:03,42.805,6.029,-0.004,0.021,0.012,105.0,106.0,103.0,13.4,1505.2,354.4,-0.8,1.8,2471.669,13.29,0.021,349.2
2024-04-28T03:19:03,42.805,6.029,-0.02,0.025,0.003,105.0,105.0,102.0,13.3,1505.2,7.0,-0.8,1.8,2471.636,13.29,0.032,321.3
2024-04-28T03:22:03,42.805,6.029,-0.012,0.029,-0.006,106.0,103.0,103.0,13.3,1505.2,9.7,-0.8,1.8,2471.653,13.29,0.031,337.5
2024-04-28T03:25:03,42.805,6.029,-0.007,0.015,0.003,106.0,105.0,102.0,13.3,1505.2,2.7,-0.8,1.8,2471.692,13.29,0.016,335.0
2024-04-28T03:28:03,42.805,6.029,-0.023,0.022,0.031,106.0,106.0,102.0,13.4,1505.2,0.5,-0.8,1.8,2471.639,13.29,0.031,313.7
2024-04-28T03:31:03,42.805,6.029,0.005,0.018,0.018,105.0,107.0,102.0,13.3,1505.2,359.4,-0.8,1.8,2471.611,13.29,0.018,15.5
2024-04-28T03:34:03,42.805,6.029,-0.037,0.006,-0.002,106.0,106.0,102.0,13.4,1505.2,358.9,-0.7,1.8,2471.644,13.29,0.037,279.2
2024-04-28T03:37:03,42.805,6.029,-0.029,0.04,-0.008,105.0,105.0,104.0,13.4,1505.2,3.0,-0.7,1.8,2471.646,13.29,0.049,324.1
2024-04-28T03:40:03,42.805,6.029,-0.026,0.018,-0.034,106.0,103.0,104.0,13.4,1505.2,3.3,-0.8,1.8,2471.664,13.29,0.031,304.7
2024-04-28T03:43:03,42.805,6.029,-0.005,0.024,0.001,107.0,104.0,103.0,13.4,1505.2,0.0,-0.7,1.8,2471.61,13.29,0.024,348.2
2024-04-28T03:46:03,42.805,6.029,-0.001,0.016,0.002,106.0,105.0,103.0,13.4,1505.2,7.4,-0.8,1.8,2471.659,13.29,0.016,356.4
2024-04-28T03:49:03,42.805,6.029,-0.003,0.027,-0.028,105.0,106.0,103.0,13.3,1505.2,6.6,-0.8,1.8,2471.661,13.29,0.027,353.7
2024-04-28T03:52:03,42.805,6.029,-0.011,0.022,0.021,106.0,104.0,103.0,13.4,1505.2,7.7,-0.8,1.8,2471.631,13.29,0.024,333.4
2024-04-28T03:55:03,42.805,6.029,-0.005,0.024,0.0,105.0,106.0,103.0,13.4,1505.2,5.0,-0.7,1.8,2471.675,13.29,0.024,348.2
2024-04-28T03:58:03,42.805,6.029,0.001,0.032,-0.007,104.0,105.0,102.0,13.3,1505.2,5.2,-0.7,1.8,2471.645,13.29,0.032,1.8
2024-04-28T04:04:03,42.805,6.029,-0.009,0.023,-0.004,105.0,106.0,103.0,13.4,1505.2,9.3,-0.8,1.8,2471.642,13.29,0.024,338.6
2024-04-28T04:07:03,42.805,6.029,-0.015,0.033,-0.006,106.0,105.0,102.0,13.3,1505.2,9.0,-0.8,1.8,2471.653,13.29,0.036,335.6
2024-04-28T04:10:03,42.805,6.029,-0.012,0.033,0.027,106.0,106.0,103.0,13.4,1505.2,9.9,-0.7,1.8,2471.643,13.29,0.035,340.0
2024-04-28T04:13:03,42.805,6.029,-0.001,0.02,0.048,105.0,106.0,102.0,13.4,1505.2,1.1,-0.8,1.8,2471.658,13.29,0.02,357.1
2024-04-28T04:16:03,42.805,6.029,-0.015,0.015,0.025,106.0,105.0,103.0,13.3,1505.2,358.3,-0.8,1.8,2471.602,13.29,0.021,315.0
2024-04-28T04:19:03,42.805,6.029,0.0,0.03,-0.017,106.0,107.0,104.0,13.3,1505.2,0.4,-0.8,1.8,2471.622,13.29,0.03,0.0
2024-04-28T04:22:03,42.805,6.029,0.003,0.009,-0.011,107.0,105.0,103.0,13.4,1505.2,5.4,-0.8,1.8,2471.652,13.29,0.009,18.4
2024-04-28T04:25:03,42.805,6.029,-0.002,0.016,-0.033,106.0,105.0,104.0,13.3,1505.2,359.5,-0.8,1.8,2471.602,13.29,0.016,352.9
2024-04-28T04:28:03,42.805,6.029,0.006,0.023,0.01,105.0,105.0,103.0,13.4,1505.2,3.9,-0.8,1.8,2471.635,13.29,0.023,14.6
2024-04-28T04:31:03,42.805,6.029,0.014,0.021,0.01,104.0,106.0,104.0,13.4,1505.2,8.4,-0.8,1.8,2471.618,13.29,0.025,33.7
2024-04-28T04:34:03,42.805,6.029,-0.011,0.021,0.003,107.0,105.0,103.0,13.3,1505.2,355.8,-0.7,1.8,2471.622,13.29,0.023,332.4
2024-04-28T04:37:03,42.805,6.029,-0.028,0.024,0.006,107.0,105.0,102.0,13.3,1505.2,358.8,-0.7,1.8,2471.651,13.29,0.036,310.6
2024-04-28T04:40:03,42.805,6.029,-0.013,0.036,0.024,106.0,105.0,103.0,13.4,1505.2,7.9,-0.8,1.8,2471.679,13.29,0.038,340.1
2024-04-28T04:43:03,42.805,6.029,-0.016,0.052,-0.013,106.0,105.0,106.0,13.3,1505.2,2.8,-0.8,1.8,2471.603,13.29,0.054,342.9
2024-04-28T04:46:03,42.805,6.029,-0.03,0.017,-0.007,106.0,106.0,103.0,13.4,1505.2,0.5,-0.8,1.8,2471.63,13.29,0.034,299.5
2024-04-28T04:49:03,42.805,6.029,-0.008,0.037,-0.005,104.0,106.0,103.0,13.3,1505.2,356.0,-0.8,1.8,2471.665,13.29,0.037,347.8
2024-04-28T04:52:03,42.805,6.029,-0.029,0.022,0.0,107.0,105.0,103.0,13.3,1505.2,9.2,-0.8,1.8,2471.622,13.29,0.036,307.2
2024-04-28T04:55:03,42.805,6.029,-0.012,0.027,0.022,106.0,106.0,102.0,13.4,1505.2,10.2,-0.7,1.8,2471.651,13.29,0.029,336.0
2024-04-28T04:58:03,42.805,6.029,-0.009,0.023,-0.001,106.0,105.0,103.0,13.4,1505.2,7.1,-0.8,1.8,2471.626,13.29,0.024,338.6
2024-04-28T05:04:03,42.805,6.029,-0.01,0.011,-0.026,106.0,106.0,103.0,13.3,1505.2,358.9,-0.8,1.8,2471.665,13.29,0.014,317.7
2024-04-28T05:07:03,42.805,6.029,-0.005,0.02,0.0,107.0,106.0,104.0,13.3,1505.2,1.5,-0.8,1.8,2471.646,13.29,0.02,346.0
2024-04-28T05:10:03,42.805,6.029,-0.006,0.01,0.012,106.0,105.0,104.0,13.3,1505.2,10.1,-0.8,1.8,2471.625,13.29,0.011,329.0
2024-04-28T05:13:03,42.805,6.029,-0.02,0.008,0.022,108.0,107.0,104.0,13.4,1505.2,0.5,-0.8,1.8,2471.654,13.29,0.021,291.8
2024-04-28T05:16:03,42.805,6.029,-0.011,0.041,0.002,108.0,107.0,103.0,13.4,1505.2,3.8,-0.8,1.8,2471.627,13.29,0.042,345.0
2024-04-28T05:19:03,42.805,6.029,0.002,0.0,-0.023,107.0,106.0,105.0,13.3,1505.2,358.9,-0.7,1.8,2471.637,13.29,0.002,90.0
2024-04-28T05:22:03,42.805,6.029,0.005,0.002,0.021,106.0,107.0,104.0,13.3,1505.2,2.0,-0.7,1.8,2471.647,13.29,0.005,68.2
2024-04-28T05:25:03,42.805,6.029,-0.013,0.021,-0.006,106.0,106.0,103.0,13.4,1505.2,358.8,-0.8,1.8,2471.612,13.29,0.024,328.2
2024-04-28T05:28:03,42.805,6.029,-0.009,0.005,0.003,107.0,106.0,105.0,13.4,1505.2,9.1,-0.8,1.8,2471.629,13.29,0.01,299.1
2024-04-28T05:31:03,42.805,6.029,-0.009,0.025,0.031,108.0,107.0,104.0,13.4,1505.2,2.0,-0.8,1.8,2471.637,13.29,0.026,340.2
2024-04-28T05:34:03,42.805,6.029,0.006,0.012,-0.008,107.0,107.0,105.0,13.4,1505.2,5.4,-0.7,1.8,2471.63,13.29,0.013,26.6
2024-04-28T05:37:02,42.805,6.029,0.01,0.002,0.011,107.0,106.0,103.0,13.3,1505.2,0.0,-0.7,1.8,2471.634,13.29,0.01,78.7
2024-04-28T05:40:03,42.805,6.029,-0.013,0.034,0.003,107.0,107.0,104.0,13.3,1505.2,5.9,-0.8,1.8,2471.596,13.29,0.036,339.1
2024-04-28T05:43:03,42.805,6.029,0.015,-0.006,0.042,107.0,106.0,105.0,13.4,1505.2,8.7,-0.8,1.8,2471.63,13.29,0.016,111.8
2024-04-28T05:46:02,42.805,6.029,0.008,0.011,-0.005,107.0,107.0,105.0,13.3,1505.2,5.4,-0.8,1.8,2471.633,13.29,0.013,36.0
2024-04-28T05:49:03,42.805,6.029,-0.001,0.007,-0.007,108.0,108.0,104.0,13.4,1505.2,2.1,-0.8,1.8,2471.611,13.29,0.007,351.9
2024-04-28T05:52:03,42.805,6.029,-0.002,0.025,0.0,109.0,107.0,104.0,13.4,1505.2,353.0,-0.8,1.8,2471.641,13.29,0.025,355.4
2024-04-28T05:55:03,42.805,6.029,0.005,0.024,-0.015,106.0,107.0,103.0,13.4,1505.2,6.5,-0.8,1.8,2471.629,13.29,0.024,11.8
2024-04-28T05:58:03,42.805,6.029,-0.006,0.008,0.013,108.0,107.0,103.0,13.4,1505.2,9.6,-0.8,1.8,2471.646,13.29,0.01,323.1
2024-04-28T06:04:04,42.805,6.029,-0.001,0.017,0.021,107.0,107.0,104.0,13.4,1505.2,9.5,-0.7,1.8,2471.674,13.29,0.017,356.6
2024-04-28T06:07:03,42.805,6.029,0.033,0.019,0.0,107.0,106.0,104.0,13.3,1505.2,356.6,-0.7,1.8,2471.671,13.29,0.038,60.1
2024-04-28T06:10:03,42.805,6.029,-0.01,0.019,-0.019,107.0,108.0,102.0,13.3,1505.2,7.6,-0.8,1.8,2471.676,13.29,0.021,332.2
2024-04-28T06:13:03,42.805,6.029,-0.003,0.016,-0.03,107.0,106.0,104.0,13.3,1505.2,358.8,-0.7,1.8,2471.675,13.29,0.016,349.4
2024-04-28T06:16:03,42.805,6.029,-0.016,0.026,0.012,107.0,106.0,104.0,13.4,1505.2,357.8,-0.7,1.8,2471.659,13.29,0.03,328.4
2024-04-28T06:19:02,42.805,6.029,0.003,0.004,-0.012,107.0,107.0,104.0,13.3,1505.2,354.6,-0.8,1.8,2471.685,13.29,0.005,36.9
2024-04-28T06:22:03,42.805,6.029,-0.009,0.03,0.003,105.0,106.0,105.0,13.4,1505.2,9.6,-0.8,1.8,2471.698,13.29,0.031,343.3
2024-04-28T06:25:02,42.805,6.029,0.006,0.013,0.0,107.0,107.0,103.0,13.4,1505.2,6.0,-0.7,1.8,2471.666,13.29,0.014,24.8
2024-04-28T06:28:02,42.805,6.029,0.002,0.009,0.022,106.0,106.0,103.0,13.4,1505.2,1.6,-0.8,1.8,2471.671,13.29,0.009,12.5
2024-04-28T06:31:02,42.805,6.029,0.005,0.005,0.0,109.0,105.0,104.0,13.4,1505.2,1.6,-0.7,1.8,2471.636,13.29,0.007,45.0
2024-04-28T06:34:02,42.805,6.029,0.006,0.014,-0.002,107.0,108.0,104.0,13.3,1505.2,4.5,-0.8,1.8,2471.658,13.29,0.015,23.2
2024-04-28T06:37:02,42.805,6.029,0.0,0.008,-0.001,108.0,106.0,104.0,13.4,1505.2,0.5,-0.7,1.8,2471.655,13.29,0.008,0.0
2024-04-28T06:40:02,42.805,6.029,0.0,0.0,0.026,107.0,106.0,103.0,13.4,1505.2,9.2,-0.8,1.8,2471.654,13.29,0.0,0.0
2024-04-28T06:43:02,42.805,6.029,-0.006,0.015,0.001,107.0,107.0,105.0,13.4,1505.2,357.7,-0.7,1.8,2471.68,13.29,0.016,338.2
2024-04-28T06:46:02,42.805,6.029,0.004,0.009,0.005,107.0,108.0,104.0,13.4,1505.2,8.9,-0.7,1.8,2471.691,13.29,0.009,24.0
2024-04-28T06:49:02,42.805,6.029,-0.003,0.012,0.016,108.0,105.0,104.0,13.4,1505.2,355.9,-0.7,1.8,2471.67,13.29,0.012,346.0
2024-04-28T06:52:02,42.805,6.029,0.017,0.014,0.002,109.0,107.0,103.0,13.3,1505.2,357.8,-0.8,1.8,2471.656,13.29,0.022,50.5
2024-04-28T06:55:02,42.805,6.029,0.016,0.0,0.019,107.0,107.0,104.0,13.3,1505.2,354.6,-0.7,1.8,2471.658,13.29,0.016,90.0
2024-04-28T06:58:02,42.805,6.029,0.002,-0.016,-0.026,106.0,106.0,104.0,13.4,1505.2,358.4,-0.8,1.8,2471.677,13.29,0.016,172.9
2024-04-28T07:04:02,42.805,6.029,-0.002,-0.007,0.02,108.0,107.0,103.0,13.4,1505.2,4.8,-0.7,1.8,2471.676,13.29,0.007,195.9
2024-04-28T07:07:03,42.805,6.029,-0.003,-0.005,-0.018,109.0,106.0,103.0,13.4,1505.2,352.4,-0.8,1.8,2471.684,13.29,0.005,211.0
2024-04-28T07:10:02,42.805,6.029,0.014,0.002,0.03,106.0,107.0,104.0,13.4,1505.2,358.2,-0.8,1.8,2471.719,13.29,0.014,81.9
2024-04-28T07:13:02,42.805,6.029,0.009,0.002,-0.007,107.0,106.0,102.0,13.4,1505.2,8.3,-0.7,1.8,2471.672,13.29,0.009,77.5
2024-04-28T07:16:03,42.805,6.029,0.01,0.011,0.005,107.0,107.0,107.0,13.4,1505.2,5.0,-0.7,1.8,2471.682,13.29,0.014,42.3
2024-04-28T07:19:02,42.805,6.029,0.017,0.014,0.008,107.0,106.0,103.0,13.4,1505.2,359.4,-0.7,1.8,2471.695,13.29,0.022,50.5
2024-04-28T07:22:02,42.805,6.029,0.005,0.019,0.018,108.0,106.0,105.0,13.4,1505.2,7.3,-0.8,1.8,2471.707,13.3,0.019,14.7
2024-04-28T07:25:02,42.805,6.029,0.006,0.029,-0.002,107.0,106.0,104.0,13.4,1505.2,9.7,-0.7,1.9,2471.682,13.3,0.029,11.7
2024-04-28T07:28:03,42.805,6.029,0.016,0.0,-0.016,106.0,106.0,104.0,13.4,1505.2,5.6,-0.8,1.8,2471.683,13.3,0.016,90.0
2024-04-28T07:31:02,42.805,6.029,0.017,0.019,-0.017,107.0,106.0,104.0,13.3,1505.2,4.3,-0.8,1.8,2471.688,13.3,0.025,41.8
2024-04-28T07:34:03,42.805,6.029,0.001,0.002,0.025,106.0,106.0,104.0,13.4,1505.2,9.9,-0.8,1.8,2471.727,13.3,0.002,26.6
2024-04-28T07:37:02,42.805,6.029,0.01,-0.011,-0.001,107.0,107.0,103.0,13.4,1505.2,359.4,-0.8,1.8,2471.715,13.3,0.014,137.7
2024-04-28T07:40:02,42.805,6.029,0.004,0.01,-0.023,106.0,105.0,104.0,13.3,1505.2,2.1,-0.8,1.8,2471.642,13.29,0.01,21.8
2024-04-28T07:43:03,42.805,6.029,0.015,-0.002,0.011,106.0,105.0,103.0,13.4,1505.2,353.1,-0.7,1.8,2471.684,13.29,0.015,97.6
2024-04-28T07:46:03,42.805,6.029,0.0,-0.008,-0.016,107.0,107.0,104.0,13.4,1505.2,2.5,-0.7,1.8,2471.678,13.29,0.008,180.0
2024-04-28T07:49:02,42.805,6.029,0.013,-0.026,0.018,107.0,105.0,103.0,13.4,1505.2,9.3,-0.8,1.8,2471.699,13.29,0.029,153.4
2024-04-28T07:52:02,42.805,6.029,0.011,-0.011,0.006,107.0,107.0,103.0,13.3,1505.2,6.0,-0.7,1.8,2471.706,13.29,0.015,135.0
2024-04-28T07:55:03,42.805,6.029,-0.003,-0.008,-0.024,107.0,106.0,103.0,13.3,1505.2,7.3,-0.8,1.8,2471.687,13.29,0.008,200.6
2024-04-28T07:58:03,42.805,6.029,0.009,-0.006,0.0,107.0,105.0,104.0,13.4,1505.2,356.8,-0.8,1.8,2471.659,13.29,0.01,123.7
2024-04-28T08:04:02,42.805,6.029,0.016,-0.006,0.021,107.0,106.0,104.0,13.4,1505.2,358.4,-0.8,1.8,2471.726,13.29,0.017,110.6
2024-04-28T08:07:02,42.805,6.029,0.019,0.012,0.008,108.0,107.0,103.0,13.4,1505.2,358.9,-0.8,1.8,2471.717,13.29,0.022,57.7
2024-04-28T08:10:03,42.805,6.029,0.009,-0.009,-0.011,108.0,105.0,105.0,13.4,1505.2,358.9,-0.8,1.8,2471.734,13.29,0.012,135.0
2024-04-28T08:13:02,42.805,6.029,-0.007,-0.017,-0.008,106.0,106.0,103.0,13.4,1505.2,9.2,-0.7,1.8,2471.719,13.29,0.018,202.4
2024-04-28T08:16:03,42.805,6.029,0.018,-0.006,0.028,107.0,106.0,103.0,13.4,1505.2,352.8,-0.8,1.8,2471.712,13.29,0.018,108.4
2024-04-28T08:19:03,42.805,6.029,-0.002,-0.033,-0.035,106.0,107.0,104.0,13.4,1505.2,5.8,-0.8,1.8,2471.729,13.29,0.033,183.5
2024-04-28T08:22:02,42.805,6.029,-0.003,-0.02,0.03,106.0,106.0,104.0,13.4,1505.2,353.6,-0.8,1.8,2471.744,13.29,0.02,188.5
2024-04-28T08:25:02,42.805,6.029,0.012,-0.005,0.004,107.0,106.0,103.0,13.4,1505.2,2.5,-0.7,1.8,2471.741,13.29,0.013,112.6
2024-04-28T08:28:03,42.805,6.029,0.02,-0.024,0.022,107.0,106.0,104.0,13.4,1505.2,5.0,-0.8,1.8,2471.697,13.29,0.031,140.2
2024-04-28T08:31:03,42.805,6.029,0.003,-0.012,0.026,106.0,107.0,103.0,13.4,1505.2,4.4,-0.8,1.8,2471.709,13.29,0.012,166.0
2024-04-28T08:34:03,42.805,6.029,0.007,0.005,0.013,107.0,107.0,103.0,13.4,1505.2,9.1,-0.8,1.8,2471.748,13.29,0.008,54.5
2024-04-28T08:37:02,42.805,6.029,0.013,-0.01,0.0,108.0,107.0,104.0,13.4,1505.2,354.1,-0.8,1.8,2471.733,13.29,0.016,127.6
2024-04-28T08:40:03,42.805,6.029,0.002,-0.015,0.009,107.0,106.0,103.0,13.3,1505.2,2.1,-0.8,1.8,2471.761,13.29,0.015,172.4
2024-04-28T08:43:03,42.805,6.029,-0.002,-0.006,-0.022,107.0,107.0,103.0,13.3,1505.2,2.5,-0.7,1.8,2471.732,13.29,0.006,198.4
2024-04-28T08:46:03,42.805,6.029,0.02,-0.021,0.015,106.0,107.0,104.0,13.3,1505.2,1.0,-0.8,1.8,2471.716,13.29,0.028,136.4
2024-04-28T08:49:03,42.805,6.029,0.003,-0.01,0.001,105.0,107.0,105.0,13.4,1505.2,355.6,-0.8,1.8,2471.722,13.29,0.01,163.3
2024-04-28T08:52:02,42.805,6.029,0.018,-0.011,0.02,107.0,106.0,104.0,13.3,1505.2,5.4,-0.8,1.8,2471.73,13.29,0.021,121.4
2024-04-28T08:55:03,42.805,6.029,0.025,-0.033,-0.024,108.0,106.0,104.0,13.4,1505.2,354.0,-0.7,1.8,2471.731,13.29,0.041,142.8
2024-04-28T08:58:03,42.805,6.029,0.013,-0.01,-0.008,108.0,107.0,105.0,13.4,1505.2,2.6,-0.8,1.8,2471.712,13.29,0.016,127.6
2024-04-28T10:04:03,42.805,6.029,0.003,-0.018,-0.029,106.0,107.0,105.0,13.3,1505.2,1.6,-0.8,1.8,2472.11,13.28,0.018,170.5
2024-04-28T10:07:02,42.805,6.029,0.009,-0.001,0.027,107.0,108.0,103.0,13.4,1505.2,354.2,-0.8,1.8,2472.073,13.28,0.009,96.3
2024-04-28T10:10:03,42.805,6.029,0.005,0.002,0.015,107.0,107.0,104.0,13.4,1505.2,1.0,-0.8,1.8,2472.001,13.28,0.005,68.2
2024-04-28T10:13:03,42.805,6.029,0.011,-0.027,0.007,106.0,106.0,104.0,13.4,1505.2,0.4,-0.8,1.8,2471.989,13.29,0.029,157.8
2024-04-28T10:16:03,42.805,6.029,0.025,-0.031,-0.001,107.0,105.0,103.0,13.4,1505.2,2.5,-0.7,1.8,2471.923,13.29,0.039,141.1
2024-04-28T10:19:03,42.805,6.029,0.008,-0.021,-0.054,108.0,105.0,103.0,13.4,1505.2,4.9,-0.8,1.8,2471.889,13.29,0.022,159.1
2024-04-28T10:22:02,42.805,6.029,0.008,-0.024,0.003,107.0,106.0,104.0,13.3,1505.2,355.3,-0.8,1.8,2471.83,13.29,0.025,161.6
2024-04-28T10:25:03,42.805,6.029,0.002,-0.023,0.033,106.0,107.0,103.0,13.4,1505.2,6.4,-0.8,1.8,2471.853,13.29,0.023,175.0
2024-04-28T10:28:03,42.805,6.029,-0.01,-0.032,-0.009,106.0,107.0,103.0,13.4,1505.2,9.4,-0.8,1.8,2471.79,13.29,0.033,197.4
2024-04-28T10:31:03,42.805,6.029,0.01,-0.016,0.028,108.0,107.0,105.0,13.3,1505.2,357.7,-0.8,1.8,2471.765,13.29,0.018,148.0
2024-04-28T10:34:03,42.805,6.029,-0.003,-0.027,-0.002,107.0,106.0,104.0,13.4,1505.2,8.5,-0.8,1.8,2471.801,13.29,0.027,186.3
2024-04-28T10:37:02,42.805,6.029,-0.031,-0.054,-0.01,107.0,107.0,103.0,13.3,1505.2,1.5,-0.7,1.8,2471.807,13.29,0.062,209.9
2024-04-28T10:40:03,42.805,6.029,-0.033,-0.035,-0.009,107.0,107.0,104.0,13.3,1505.2,8.4,-0.7,1.8,2471.741,13.29,0.048,223.3
2024-04-28T10:43:03,42.805,6.029,-0.019,-0.034,0.004,107.0,106.0,104.0,13.4,1505.2,4.4,-0.8,1.8,2471.726,13.29,0.038,209.2
2024-04-28T10:46:03,42.805,6.029,-0.033,-0.053,-0.015,106.0,105.0,103.0,13.4,1505.2,5.5,-0.7,1.8,2471.699,13.29,0.062,211.9
2024-04-28T10:49:03,42.805,6.029,-0.035,-0.029,-0.007,107.0,106.0,103.0,13.3,1505.2,9.1,-0.7,1.8,2471.708,13.29,0.045,230.4
2024-04-28T10:52:02,42.805,6.029,-0.012,-0.047,-0.005,107.0,107.0,103.0,13.4,1505.2,1.1,-0.8,1.8,2471.663,13.29,0.048,194.3
2024-04-28T10:55:03,42.805,6.029,-0.027,-0.038,-0.033,107.0,106.0,104.0,13.3,1505.2,358.9,-0.7,1.8,2471.69,13.29,0.046,215.4
2024-04-28T10:58:03,42.805,6.029,-0.015,-0.03,-0.002,106.0,105.0,103.0,13.4,1505.2,353.3,-0.8,1.8,2471.662,13.29,0.033,206.6
2024-04-28T11:04:02,42.805,6.029,-0.001,-0.035,0.021,107.0,106.0,105.0,13.3,1505.2,9.1,-0.8,1.8,2471.722,13.29,0.035,181.6
2024-04-28T11:07:02,42.805,6.029,-0.016,-0.03,-0.034,107.0,107.0,103.0,13.4,1505.2,354.7,-0.8,1.8,2471.69,13.29,0.034,208.1